Location: Eastchurch
(51.4000°N, 0.8667°E)
Time: 19:56:21
(UTC+00:00)

ISS - Pass Details

Date: 19 January 2026
Orbit: 413 x 428 km, 51.6° (Epoch: 16 February)

Event Time Altitude Azimuth Distance (km) Brightness Sun altitude
Rises 17:30:57 0° 249° (WSW) 2,356 2.4 -10.2°
Reaches altitude 10° 17:33:03 10° 247° (WSW) 1,497 0.7 -10.5°
Maximum altitude 17:36:23 69° 163° (SSE) 453 -3.6 -11.0°
Enters shadow 17:38:46 18° 83° (E) 1,113 -2.2 -11.4°
